Santiago, Chile

7:04 PM -03 on February 24, 2018 (GMT -0300)
Arturo Merino Benitez International

Weather History for SCEL - February, 2018

Change the Weather History Date:

Saturday, February 24, 2018

  Actual Average Record
Temperature  
Mean Temperature 68 °F -  
Max Temperature 82 °F 79 °F 93 °F (2016)
Min Temperature 55 °F 49 °F 47 °F (2014)
Cooling Degree Days 4    
Growing Degree Days 18 (Base 50)    
Moisture  
Dew Point 54 °F    
Average Humidity 61    
Maximum Humidity 88    
Minimum Humidity 32    
Precipitation  
Precipitation 0.00 in - - ()
Sea Level Pressure  
Sea Level Pressure 30.00 in    
Wind  
Wind Speed 6 mph ()    
Max Wind Speed 18 mph    
Max Gust Speed -    
Visibility 5.6 miles    
Events      
Averages and records for this station are not official NWS values.
T = Trace of Precipitation, MM = Missing Value Source: Averaged Metar Reports

Daily Weather History Graph

Daily Weather History Graph

Search for Another Location

Airport or City:

Trip Planner

Search our weather history database for the weather conditions in past years. The results will help you decide how hot, cold, wet, or windy it might be!

Date:

Astronomy

Feb. 24, 2018 Rise Set
Actual Time 7:27 AM -03 8:24 PM -03
Civil Twilight 7:01 AM -03 8:50 PM -03
Nautical Twilight 6:31 AM -03 9:20 PM -03
Astronomical Twilight 6:00 AM -03 9:51 PM -03
Moon 3:59 PM -03 1:40 AM -03
Length of Visible Light 13h 48m
Length of Day
12h 57m
Waxing Gibbous, 64% of the Moon is Illuminated
Today
Waxing Gibbous
Mar 1
Full
Mar 9
Last Quarter
Mar 17
New
Mar 24
First Quarter

Hourly Weather History & Observations

Time (-03) Temp. Heat Index Dew Point Humidity Pressure Visibility Wind Dir Wind Speed Gust Speed Precip Events Conditions
12:00 AM 66.2 °F - 55.4 °F 68% 29.98 in - SSE 9.2 mph - N/A   Clear
1:00 AM 64.4 °F - 55.4 °F 73% 29.98 in - SSE 5.8 mph - N/A   Clear
2:00 AM 64.4 °F - 55.4 °F 73% 29.98 in - SSE 8.1 mph - N/A   Clear
3:00 AM 62 °F - 54 °F 69% 29.96 in 6 mi SSE 5.8 mph - -   Partly Cloudy
3:00 AM 62.6 °F - 53.6 °F 72% 29.98 in - SSE 5.8 mph - N/A   Clear
4:00 AM 60.8 °F - 53.6 °F 77% 29.98 in - SSE 4.6 mph - N/A   Clear
5:00 AM 59.0 °F - 53.6 °F 82% 29.98 in - SSE 4.6 mph - N/A   Clear
6:00 AM 59.0 °F - 53.6 °F 82% 29.98 in - SSE 3.5 mph - N/A   Clear
7:00 AM 57.2 °F - 53.6 °F 88% 29.98 in 5.0 mi Variable 1.2 mph - N/A   Unknown
8:00 AM 57.2 °F - 51.8 °F 82% 30.01 in 4.3 mi NNW 1.2 mph - N/A   Unknown
9:00 AM 62 °F - 54 °F 68% 30.01 in 5 mi Calm Calm - -   Smoke
9:00 AM 62.6 °F - 53.6 °F 72% 30.01 in 5.0 mi Calm Calm - N/A   Unknown
10:00 AM 66.2 °F - 55.4 °F 68% 30.04 in - Variable 2.3 mph - N/A   Clear
11:00 AM 71.6 °F - 55.4 °F 57% 30.01 in - Variable 1.2 mph - N/A   Clear
12:00 PM 75.2 °F - 55.4 °F 50% 30.04 in - SSW 6.9 mph - N/A   Clear
1:00 PM 78.8 °F - 55.4 °F 44% 30.01 in - South 5.8 mph - N/A   Clear
2:00 PM 80.6 °F 80.5 °F 55.4 °F 42% 30.01 in - South 12.7 mph - N/A   Clear
3:00 PM 82.4 °F - 51.8 °F 35% 30.01 in 6.2 mi SSW 15.0 mph - N/A   Partly Cloudy
4:00 PM 82.4 °F - 50.0 °F 32% 30.01 in 6.2 mi SSW 16.1 mph - N/A   Partly Cloudy
5:00 PM 82.4 °F - 51.8 °F 35% 29.98 in 6.2 mi South 16.1 mph - N/A   Partly Cloudy
6:00 PM 80.6 °F 80.3 °F 53.6 °F 39% 29.98 in 6.2 mi SSW 17.3 mph - N/A   Partly Cloudy
7:00 PM 78.8 °F - 51.8 °F 39% 29.98 in 6.2 mi SSW 18.4 mph - N/A   Partly Cloudy